This is the latest recevied weather packets stored in our database for station/object N7CEE. If no packets are shown the sender has not sent any weather packets the latest 10 day(s).
| Time | Temp. | Humidity | Pressure | Rain* | Wind** | Luminosity | Snow |
|---|---|---|---|---|---|---|---|
| 1777779215 | 13.33° C | 29% | 1025.5 hPa | 0 mm | - | 0 W/m² | - |
| 1777778913 | 12.78° C | 28% | 1025.3 hPa | 0 mm | - | 0 W/m² | - |
| 1777778611 | 12.78° C | 29% | 1025.2 hPa | 0 mm | - | 0 W/m² | - |
| 1777778308 | 12.22° C | 29% | 1025.3 hPa | 0 mm | - | 0 W/m² | - |
| 1777778006 | 12.78° C | 29% | 1025.2 hPa | 0 mm | - | 0 W/m² | - |
| 1777777702 | 12.78° C | 29% | 1025.1 hPa | 0 mm | - | 0 W/m² | - |
| 1777777399 | 12.78° C | 29% | 1025.1 hPa | 0 mm | - | 0 W/m² | - |
| 1777777096 | 13.33° C | 28% | 1025 hPa | 0 mm | - | 0 W/m² | - |
| 1777776793 | 13.89° C | 28% | 1024.9 hPa | 0 mm | - | 0 W/m² | - |
| 1777776490 | 13.89° C | 27% | 1024.9 hPa | 0 mm | - | 0 W/m² | - |
| 1777776186 | 13.89° C | 27% | 1024.9 hPa | 0 mm | - | 0 W/m² | - |
| 1777775883 | 14.44° C | 27% | 1024.7 hPa | 0 mm | - | 0 W/m² | - |
| 1777775580 | 14.44° C | 27% | 1024.6 hPa | 0 mm | - | 0 W/m² | - |
| 1777775276 | 15° C | 26% | 1024.7 hPa | 0 mm | - | 0 W/m² | - |
| 1777774971 | 15° C | 26% | 1024.6 hPa | 0 mm | - | 1 W/m² | - |
| 1777774668 | 15° C | 26% | 1024.7 hPa | 0 mm | - | 1 W/m² | - |
| 1777774364 | 15° C | 26% | 1024.6 hPa | 0 mm | - | 2 W/m² | - |
| 1777774062 | 15.56° C | 26% | 1024.4 hPa | 0 mm | - | 4 W/m² | - |
| 1777773760 | 15.56° C | 26% | 1024.4 hPa | 0 mm | - | 6 W/m² | - |
| 1777773456 | 15.56° C | 25% | 1024.2 hPa | 0 mm | - | 8 W/m² | - |
| 1777773153 | 16.11° C | 26% | 1024.4 hPa | 0 mm | - | 10 W/m² | - |
| 1777772848 | 16.11° C | 25% | 1024.4 hPa | 0 mm | - | 13 W/m² | - |
| 1777772547 | 16.11° C | 25% | 1024.6 hPa | 0 mm | - | 16 W/m² | - |
| 1777772244 | 16.67° C | 25% | 1024.7 hPa | 0 mm | - | 16 W/m² | - |
| 1777771941 | 16.67° C | 25% | 1024.5 hPa | 0 mm | - | 16 W/m² | - |
* Rain latest hour (hover to see other rain measurements)
** Current wind speed in m/s (hover to see current wind gust speed)